Location: Arleux
(50.3632°N, 2.8721°E)
Time: 13:25:25
(UTC+00:00)

Cosmos 1486 Rocket - Pass Details

Date: 15 December 2019
Orbit: 759 x 783 km, 74.1° (Epoch: 17 January)

Event Time Altitude Azimuth Distance (km) Brightness Sun altitude
Exits shadow 06:24:35 10° 327° (NNW) 2,354 6.0 -11.5°
Reaches altitude 10° 06:24:38 10° 327° (NNW) 2,337 6.0 -11.5°
Maximum altitude 06:29:41 47° 254° (WSW) 1,017 4.3 -10.7°
Drops below altitude 10° 06:34:41 10° 182° (S) 2,305 6.8 -10.0°
Sets 06:37:07 0° 176° (S) 3,223 7.6 -9.7°
